Home > Weather > Porto Alegre > Past weeks

Flag for Brazil Weather for the Past 2 Weeks in Porto Alegre, Rio Grande do Sul, Brazil

Now
90 °F

Passing clouds.


Feels Like: 98 °F
Forecast: 74 / 89 °F
Wind: 6 mph from Northwest

Location: Porto Alegre Aero-Porto

Current Time: Feb 13, 2016 at 3:25:29 PM

Latest Report: Feb 13, 2016 at 3:00 PM


Visibility: N/A

Pressure: 29.74 "Hg

Humidity: 59%

Dew point: 73 °F

Location of Porto AlegreLocation

Historic Weather in Porto Alegre — Graph

°F

Porto Alegre Temperature Yesterday

Maximum temperature yesterday: 91 °F (at 4:00 PM)
Minimum temperature yesterday: 72 °F (at 5:00 AM)
Average temperature yesterday: 81 °F

High & Low Weather Summary for the Past Weeks

 TemperatureHumidityPressure
High97 °F (Jan 29, 5:00 PM)100% (Jan 31, 12:00 AM)30.09 "Hg (Jan 31, 12:00 AM)
Low39 °F (Jan 31, 3:00 PM)24% (Jan 31, 4:00 PM)29.74 "Hg (Feb 13, 4:00 AM)
Average78 °F76%29.92 "Hg
* Reported Jan 29 2:00 PM — Feb 13 2:00 PM, Porto Alegre, Weather by CustomWeather, © 2016

Note: Actual official high and low records may vary slightly from our data, if they occured in-between our weather recording intervals... More about our weather records

Advertising

Porto Alegre Weather History for the Previous 24 Hours

 ConditionsComfort  
Time TempWeatherWind HumidityBarometerVisibility
2:00 PM
Sat, Feb 13
90 °FPassing clouds.9 mph55%29.74 "HgN/A
1:00 PM90 °FPassing clouds.9 mph55%29.77 "HgN/A
12:00 PM88 °FPassing clouds.12 mph52%29.77 "HgN/A
11:00 AM86 °FPassing clouds.7 mph55%29.77 "HgN/A
10:00 AM81 °FSunny.7 mph74%29.80 "Hg10 mi
9:00 AM79 °FSunny.7 mph79%29.80 "Hg10 mi
8:00 AM75 °FSunny.6 mph89%29.80 "Hg10 mi
7:00 AM75 °FClear.8 mph83%29.77 "Hg10 mi
6:00 AM75 °FClear.6 mph83%29.74 "Hg10 mi
5:00 AM73 °FClear.7 mph89%29.74 "Hg10 mi
4:00 AM75 °FClear.8 mph83%29.74 "Hg10 mi
3:00 AM75 °FClear.7 mph83%29.77 "Hg10 mi
2:00 AM77 °FClear.8 mph79%29.77 "Hg10 mi
1:00 AM77 °FClear.9 mph79%29.77 "Hg10 mi
12:00 AM77 °FClear.9 mph79%29.80 "Hg10 mi
11:00 PM
Fri, Feb 12
79 °FClear.10 mph74%29.80 "Hg10 mi
10:00 PM79 °FClear.9 mph79%29.80 "Hg10 mi
9:00 PM81 °FClear.14 mph74%29.77 "Hg10 mi
8:00 PM84 °FSunny.15 mph66%29.77 "Hg10 mi
7:00 PM88 °FSunny.13 mph62%29.77 "Hg10 mi
6:00 PM90 °FSunny.13 mph59%29.77 "Hg10 mi
5:00 PM90 °FPassing clouds.9 mph52%29.80 "HgN/A
4:00 PM91 °FSunny.3 mph49%29.83 "Hg10 mi
3:00 PM90 °FPassing clouds.7 mph55%29.83 "HgN/A
Weather by CustomWeather, © 2016

See weather overviewHow to use our weather pages